Location: Unspecified
(29.9680°N, 0.0000°E)
Time: 12:58:09
(UTC+00:00)

A-11 Canister half - Pass Details

Date: 25 June 2019
Orbit: 1526 x 1683 km, 47.3° (Epoch: 17 July)

Event Time Altitude Azimuth Distance (km) Brightness Sun altitude
Rises 12:05:56 0° 298° (WNW) 4,679 11.5 83.4°
Reaches altitude 10° 12:09:27 10° 288° (WNW) 3,702 11.2 83.2°
Maximum altitude 12:17:03 29° 233° (SW) 2,541 10.8 82.7°
Drops below altitude 10° 12:24:50 10° 177° (S) 3,768 11.3 81.8°
Sets 12:28:30 0° 167° (SSE) 4,775 11.7 81.2°
